Terug naar catalogus

STARLINK-37772

ActiefCommunicatieSSO
NORAD 69330·PAYLOAD·🇺🇸 United States

Gelanceerd Jun 3, 2026 vanaf Vandenberg Space Force Base

Loading…

Volgende Passages (komende 24 uur)

TLE

VersSource: CelesTrak SupGP

Epoch: Sep 15, 2026, 03:42 UTC

1 69330C 26122B   26258.15465278 -.00049275  00000+0 -15298-2 0  2588
2 69330  97.2830 286.7790 0001186 101.3795 325.2483 15.33460801    12

Volg STARLINK-37772 in realtime met AllMySat

Download on the App Store